Flag for U.S.A. Weather past 2 weeks in Cocoa Beach, Florida, U.S.A.

Now
86 °F

Thunderstorms. Sunny.


Feels Like: 97 °F
Forecast: 76 / 88 °F
Wind: 5 mph from Northeast

Location: Cocoa / Patrick Air Force Base

Current Time: Sep 5, 2015 at 12:39:27 PM

Latest Report: Sep 5, 2015 at 12:02 PM


Visibility: 10 mi

Pressure: 30.02 "Hg

Humidity: 75%

Dew point: 77 °F

Location of Cocoa BeachLocation

Historic Weather in Cocoa Beach — Graph

°F

Cocoa Beach temperature yesterday

Maximum temperature yesterday: 88 °F (at 11:58 AM)
Minimum temperature yesterday: 77 °F (at 2:03 PM)
Average temperature yesterday: 81 °F

Past Weeks' High & Low Weather Summary

 TemperatureHumidityPressure
High92 °F (Aug 25, 12:58 PM)97% (Sep 1, 6:58 AM)30.11 "Hg (Sep 1, 6:58 AM)
Low73 °F (Aug 27, 3:58 PM)59% (Aug 24, 12:58 PM)29.88 "Hg (Aug 24, 7:58 PM)
Average82 °F82%29.99 "Hg
* Reported Aug 21 10:58 AM — Sep 5 10:58 AM, Cocoa Beach, Weather by CustomWeather, © 2015

Note: Actual official high and low records may vary slightly from our data, if they occured in-between our weather recording intervals... More about our weather records

Advertising

Cocoa Beach weather history for previous 24 hours

 ConditionsComfort  
Time TempWeatherWind HumidityBarometerVisibility
10:58 AM
Sat, Sep 5
85 °FSunny.3 mph65%30.03 "Hg10 mi
9:58 AM83 °FScattered clouds.8 mph84%30.02 "Hg10 mi
8:58 AM82 °FSunny.7 mph88%30.00 "Hg10 mi
7:58 AM79 °FClear.7 mph90%29.99 "Hg10 mi
6:58 AM78 °FClear.8 mph89%29.99 "Hg10 mi
5:58 AM78 °FClear.8 mph90%29.98 "Hg10 mi
4:58 AM78 °FClear.5 mph92%29.96 "Hg10 mi
3:58 AM78 °FClear.7 mph89%29.95 "Hg10 mi
2:58 AM78 °FClear.9 mph85%29.96 "Hg10 mi
1:58 AM77 °FClear.8 mph90%29.97 "Hg10 mi
12:58 AM78 °FClear.7 mph86%29.98 "Hg10 mi
11:58 PM
Fri, Sep 4
78 °FClear.8 mph86%29.98 "Hg10 mi
10:58 PM78 °FClear.8 mph89%30.00 "Hg10 mi
9:58 PM78 °FClear.5 mph90%29.98 "Hg10 mi
8:58 PM78 °FClear.3 mph89%29.95 "Hg10 mi
7:58 PM78 °FSunny.8 mph89%29.96 "Hg10 mi
6:58 PM78 °FSunny.6 mph92%29.95 "Hg10 mi
5:58 PM79 °FSunny.9 mph92%29.95 "Hg10 mi
4:58 PM79 °FSunny.9 mph91%29.95 "Hg10 mi
3:58 PM80 °FSunny.6 mph90%29.95 "Hg10 mi
2:58 PM80 °FSunny.6 mph92%29.96 "Hg10 mi
2:03 PM77 °FStrong thunderstorms. Fog.3 mph94%29.96 "Hg1 mi
12:58 PM84 °FThunderstorms. Scattered clouds.9 mph81%29.98 "Hg9 mi
Weather by CustomWeather, © 2015

See weather overviewHow to use our weather pages